Reflectivity
-20 -20 -20 -20 -20 -20 -20 -20 -20 -20 -20 -20 -20 -20 -20 -20 6 15 20 22 14 1 12 23 24 27 -12 14 -3 14 16 28 37 38 36 22 27 -12 -6 10 1 8 -17 3
-20 -20 -20 -20 -20 -20 -20 -20 -20 -20 -20 -20 -20 -20 -20 -18 16 26 29 15 -4 -4 12 1 15 10 31 14 22 11 23 27 37 14 38 33 31 20 -9 6 15 7 -15 -18
-20 -20 -20 -20 -20 -20 -20 -20 -20 -20 -20 -20 -20 -20 -20 -20 -13 23 34 23 20 29 31 12 24 14 -5 22 11 31 26 32 30 40 37 40 34 26 5 15 8 2 7 -3
-20 -20 -20 -20 -20 -20 -20 -20 -20 -20 -20 -20 -20 -20 -20 -20 -20 4 10 20 31 34 42 40 20 30 16 2 11 19 36 32 24 23 27 35 24 37 9 13 8 7 -6 -13
-20 -20 -20 -20 -20 -20 -20 -20 -20 -20 -20 -20 -20 -20 -20 -20 -20 -20 -19 8 3 28 -14 38 42 32 24 27 23 24 18 25 18 17 18 17 27 32 25 3 -20 -20 -20 -20
-20 -20 -20 -20 -20 -20 -20 -20 -20 -20 -20 -20 -20 -20 -20 -20 -20 -20 -20 -20 -20 5 25 7 22 32 15 28 27 30 24 23 31 33 27 18 23 35 37 10 -8 -1 -18 -19
-20 -20 -20 -20 -20 -20 -20 -20 -20 -20 -20 -20 -20 -20 -20 -20 -20 -20 -20 -20 -20 -20 -12 18 10 2 18 38 35 27 25 21 29 31 26 25 28 31 34 38 37 26 12 4
-20 -20 -20 -20 -20 -20 -20 -20 -20 -20 -20 -20 -20 -20 -20 -20 -20 -20 -20 -20 -20 -20 -20 -20 -14 -8 -14 4 9 5 -10 -13 11 25 23 24 32 31 34 34 28 30 35 32
-20 -20 -20 -20 -20 -20 -20 -20 -20 -20 -20 -20 -20 -20 -20 -20 -20 -20 -20 -20 -20 -20 -20 -20 -20 -20 -20 -20 -20 -9 -9 -19 -20 -20 2 10 15 7 17 18 16 1 21 23
-20 -20 -20 -20 -20 -20 -20 -20 -20 -20 -20 -20 -20 -20 -20 -20 -20 -20 -20 -20 -20 -20 -20 -20 -20 -20 -20 -20 -20 -20 -2 -13 -20 -20 -20 -20 -18 -20 -20 -20 -13 10 23 -3
-20 -20 -20 -20 -20 -20 -20 -20 -20 -20 -20 -20 -20 -20 -20 -20 -20 -20 -20 -20 -20 -20 -20 -20 -20 -20 -20 -20 -20 -20 -20 -20 -20 -20 -20 -20 -20 -20 -20 -20 -20 -17 -14 -19
-20 -20 -20 -20 -20 -20 -12 -20 -20 -20 -20 -20 -20 -20 -20 -20 -20 -20 -20 -20 -20 -20 -20 -20 -20 -20 -20 -20 -20 -20 -20 -20 -20 -20 -20 -20 -20 -20 -20 -20 -20 -20 -20 -20
-20 -20 -20 -20 -20 -20 -13 -20 -20 -20 -20 -20 -20 -20 -20 -20 -20 -20 -20 -20 -20 -20 -20 -20 -20 -20 -20 -20 -20 -20 -20 -20 -20 -20 -20 -20 -20 -20 -20 -20 -20 -20 -20 -20
-20 -20 -20 -6 3 -16 -20 2 -20 -20 -20 -20 -20 -20 -20 -20 -20 -20 -20 -20 -20 -20 -20 -20 -20 -20 -20 -20 -20 -20 -20 -20 -20 -20 -20 -20 -20 -20 -20 -20 -20 -20 -20 -20
-20 -20 -20 -20 -13 0 -20 -18 13 -18 -20 -20 -4 -20 -20 -20 -20 -20 -20 -20 -20 -20 -20 -20 -20 -20 -20 -20 -20 -20 -20 -20 -20 -20 -20 -20 -20 -20 -20 -20 -20 -20 -20 -20
-20 -20 -20 -20 -20 5 -11 8 18 8 -12 -17 -20 -20 -20 -20 -20 -20 -20 -20 -20 -20 -20 -20 -20 -20 -20 -20 -20 -20 -20 -20 -20 -20 -20 -20 -20 -20 -20 -20 -20 -20 -20 -20
-20 -20 -20 -20 -20 -20 -20 14 20 11 -13 -19 -20 -20 -20 -20 -20 -20 -20 -20 -20 -20 -20 -20 -20 -20 -20 -20 -20 -20 -20 -20 -20 -20 -20 -20 -20 -20 -20 -20 -20 -20 -20 -20
-20 -20 -19 -20 -20 -20 -20 -12 10 7 5 4 4 2 -15 -20 -20 -20 -20 -20 -20 -20 -20 -20 -20 -20 -20 -20 -20 -20 -20 -20 -20 -20 -20 -20 -20 -20 -20 -20 -20 -20 -20 -20
-20 -9 8 4 -20 -20 -20 6 7 -1 -19 -20 -12 -14 -20 -20 -20 -20 -20 -20 -20 -20 -20 -20 -20 -20 -20 -20 -20 -20 -20 -20 -20 -20 -20 -20 -20 -20 -20 -20 -20 -20 -20 -20
-20 -20 -12 -5 -5 -20 -20 -20 -20 -20 -20 -9 -18 -20 -19 -20 -20 -20 -20 -20 -20 -20 -20 -20 -20 -20 -20 -20 -20 -20 -20 -20 -20 -20 -20 -20 -20 -20 -20 -20 -20 -20 -20 -20
-20 -20 -2 -19 8 -20 -20 -20 -20 -20 -20 -20 -20 -20 -20 -20 -20 -20 -20 -20 -20 -20 -20 -20 -20 -20 -20 -20 -20 -20 -20 -20 -20 -20 -20 -20 -20 -20 -20 -20 -20 -20 -20 -20
-4 6 -14 -5 1 -20 -20 -20 -20 -20 -20 -20 -20 -20 -20 -20 -20 -20 -20 -20 -20 -20 -20 -20 -20 -20 -20 -20 -20 -20 -20 -20 -20 -20 -20 -20 -20 -20 -20 -20 -20 -20 -20 -20
-15 -3 10 2 2 -1 2 -20 -20 -20 -20 -20 -20 -20 -20 -20 -20 -20 -20 -20 -20 -20 -20 -20 -20 -20 -20 -20 -20 -20 -20 -20 -20 -20 -20 -20 -20 -20 -20 -20 -20 -20 -20 -20
-8 -15 7 5 -6 -20 -20 -20 -15 -16 -20 -20 -20 -20 -20 -20 -20 -20 -20 -20 -20 -20 -20 -20 -20 -20 -20 -20 -20 -20 -20 -20 -20 -20 -20 -20 -20 -20 -20 -20 -20 -20 -20 -20
-18 -17 5 12 -4 3 8 -2 10 2 -20 -20 -20 -20 -20 -20 -20 -20 -20 -20 -20 -20 -20 -20 -20 -20 -20 -20 -20 -20 -20 -20 -20 -20 -20 -20 -20 -20 -20 -20 -20 -9 -20 -20
-20 -18 10 7 -2 -1 -6 -8 -16 -20 -20 -20 -20 -20 -20 -20 -20 -20 -20 -20 -20 -20 -20 -20 -20 -20 -20 -20 -20 -20 -20 -20 -20 -20 -20 -20 -20 -20 -20 -20 -20 -15 -3 -5
Wind_Speed
1 7 2 6 3 4 5 4 3 5 4 6 9 8 7 11 16 21 22 21 19 18 18 21 8 10 9 8 8 6 11 7 8 6 5 5 4 5 3 3 5 5 5 5
6 1 5 7 3 5 7 2 4 4 2 6 6 7 5 9 14 16 17 19 21 23 23 22 20 17 12 13 12 11 9 11 7 8 3 4 2 3 3 2 3 3 5 5
3 2 4 5 4 7 4 3 4 4 6 3 10 4 3 3 7 13 15 14 18 22 23 21 20 19 19 18 12 12 12 10 8 7 7 4 1 2 3 2 2 1 4 5
2 1 3 4 1 2 1 5 3 6 2 2 4 2 2 3 11 14 13 14 15 14 13 17 22 22 19 17 20 14 9 10 5 5 7 5 2 3 1 2 1 2 2 4
6 2 3 2 3 1 7 4 6 4 4 3 4 5 4 4 7 10 11 13 13 15 17 17 17 16 18 20 20 18 19 17 13 11 8 2 5 2 1 1 2 2 3 5
4 0 3 3 6 4 6 3 1 3 1 3 4 6 3 5 4 5 6 10 14 15 15 16 13 15 18 17 19 17 18 19 20 15 9 8 8 6 5 4 1 2 3 3
5 2 1 1 5 5 8 6 4 4 3 5 3 5 1 4 6 6 7 9 11 12 14 16 18 18 18 20 17 15 18 19 18 17 17 16 10 5 3 3 3 5 2 2
3 8 2 2 2 2 3 4 4 2 1 5 1 2 2 7 8 6 7 5 7 10 11 14 16 15 15 15 15 15 15 16 17 15 15 15 15 9 7 3 1 0 1 3
5 6 3 2 1 2 4 3 5 2 2 0 3 4 3 6 6 6 6 7 8 9 9 10 12 13 13 14 15 14 16 17 16 15 12 13 13 13 11 12 11 8 5 2
2 5 3 1 2 2 1 2 2 2 1 4 3 4 5 8 7 6 5 5 6 7 8 8 9 10 11 12 12 16 17 16 13 13 12 11 12 11 11 11 13 12 11 13
2 2 8 3 2 3 1 2 2 1 4 3 3 4 6 9 9 9 7 6 5 7 7 8 7 7 8 8 9 11 11 12 13 12 11 11 11 12 10 10 10 11 11 12
2 2 4 9 4 2 0 2 2 3 3 2 3 5 6 8 8 8 7 7 6 6 6 6 7 7 8 9 10 12 13 13 12 11 10 12 12 12 12 11 11 11 11 11
1 2 5 9 2 2 1 2 3 2 2 5 2 4 4 7 8 7 8 7 6 6 6 6 6 6 8 9 9 10 9 9 9 9 8 9 11 12 13 13 14 13 13 12
2 2 6 7 7 2 4 4 4 5 4 3 7 5 7 9 10 7 7 8 7 6 5 5 5 5 5 5 7 8 7 8 8 9 8 10 11 11 10 10 11 12 13 12
3 5 5 10 12 6 11 14 11 12 12 9 2 4 10 11 10 7 6 7 7 5 5 5 4 4 4 5 3 4 6 9 8 9 7 9 9 9 9 10 10 11 11 11
2 5 3 6 10 14 15 14 14 16 15 14 10 3 4 7 8 7 6 7 6 5 6 6 7 8 10 8 7 9 9 9 7 8 4 8 9 10 11 12 12 11 11 11
5 3 2 7 5 7 9 7 3 3 3 5 11 4 7 6 8 6 6 6 5 5 5 5 6 6 6 7 7 9 8 7 7 9 6 10 11 11 10 11 11 12 12 13
4 3 2 5 5 5 1 1 3 5 5 7 11 8 8 7 7 7 6 5 5 4 4 4 5 5 6 6 6 7 7 9 9 8 8 10 10 11 10 11 12 11 11 12
5 5 3 4 4 8 3 1 1 2 2 5 8 9 8 10 7 5 5 4 3 2 3 3 3 4 5 6 6 6 6 6 7 8 10 10 10 12 12 12 12 11 11 12
1 4 5 3 5 6 2 2 2 2 3 4 9 6 3 2 4 2 2 3 4 4 3 4 4 3 5 6 6 5 6 6 6 9 10 10 10 11 12 13 13 12 12 13
4 2 10 9 6 7 3 2 2 3 2 6 7 5 4 3 2 3 4 4 3 3 5 5 5 5 6 6 5 5 5 5 6 9 9 10 9 11 11 13 12 12 13 13
8 7 5 4 5 10 3 2 5 3 4 6 6 4 5 4 4 4 3 2 3 4 4 4 5 5 6 5 5 6 7 7 8 9 10 10 10 10 10 12 10 12 12 13
4 6 5 6 4 2 3 6 4 3 4 3 6 5 4 3 2 2 2 3 3 4 4 3 4 6 5 6 5 7 9 8 10 9 10 10 11 11 10 12 12 11 10 10
3 1 2 2 5 5 5 6 5 7 6 6 5 4 3 1 3 4 5 4 5 4 5 4 5 6 7 5 5 6 9 8 9 10 11 10 10 12 10 9 9 10 9 11
2 4 5 1 4 5 4 4 5 5 5 5 3 2 1 2 3 3 3 4 4 6 5 5 6 8 7 6 8 8 9 9 9 10 10 10 8 10 11 9 9 10 10 13
1 3 4 3 7 2 4 7 6 6 5 3 2 2 3 3 4 3 4 4 4 6 4 6 6 8 10 9 9 10 9 9 8 10 9 8 10 8 9 10 10 16 21 27
Wind_Direction
64 64 331 276 257 235 252 226 264 251 177 102 106 95 44 14 1 18 350 352 9 31 23 13 6 13 35 56 80 78 101 97 116 97 101 113 139 119 102 117 135 143 149 156
24 106 261 286 4 39 356 45 321 292 262 104 130 102 94 44 22 28 350 358 10 17 13 12 10 12 23 46 47 64 79 95 96 79 89 65 27 92 110 130 136 163 150 151
161 229 331 9 29 34 18 90 289 260 312 242 140 119 136 88 74 45 17 10 21 18 11 9 6 16 22 16 37 45 44 50 62 110 87 110 75 76 66 45 76 161 165 157
136 16 37 357 47 76 156 213 220 283 327 210 115 249 95 155 45 38 23 21 21 18 31 19 16 15 17 16 30 35 44 55 49 67 99 110 98 79 142 188 183 188 161 179
265 336 25 335 247 211 238 262 224 218 267 8 300 81 266 16 19 22 12 27 21 25 22 32 19 17 19 26 28 27 32 35 33 33 23 102 94 348 10 74 170 198 198 185
262 155 156 225 291 189 278 308 311 124 123 21 238 119 339 8 9 18 11 19 24 23 25 27 25 32 32 29 33 30 33 30 24 24 28 27 79 64 31 15 313 254 244 235
331 294 324 302 339 3 25 40 1 2 21 225 215 60 136 103 66 67 24 18 22 22 27 20 23 24 28 29 24 32 31 31 29 21 26 21 43 58 52 26 28 358 334 328
344 334 342 7 132 263 304 119 140 248 290 273 175 174 172 129 113 91 65 25 36 32 25 29 21 21 27 30 31 29 37 34 27 22 24 24 23 18 14 345 270 262 309 330
7 297 345 333 317 101 331 44 178 167 245 90 161 83 44 121 107 91 67 45 24 34 38 28 28 24 26 22 27 24 34 32 23 19 18 25 24 21 15 8 16 10 349 345
318 309 287 284 307 256 213 234 78 13 344 303 267 165 184 171 150 123 87 57 42 29 29 41 38 27 23 24 20 24 27 25 22 22 16 22 16 19 18 12 11 9 357 4
340 130 290 352 212 224 306 336 305 169 151 193 289 253 187 165 160 141 134 111 73 52 31 15 20 24 24 29 26 31 31 25 19 18 14 17 17 14 18 16 4 4 360 359
226 183 277 249 314 331 301 215 141 130 280 265 196 266 141 139 132 126 122 118 101 77 49 35 14 5 19 27 22 24 18 14 8 4 10 14 12 9 9 8 0 356 357 353
192 277 332 327 314 356 37 267 218 133 75 223 182 258 177 130 125 131 120 108 95 87 65 40 31 24 12 10 15 20 18 7 1 359 7 11 7 4 2 359 354 351 349 348
42 260 193 231 281 328 281 251 238 182 174 247 228 161 196 168 148 135 117 115 102 86 61 54 42 33 31 15 7 10 5 353 357 0 11 11 6 360 354 350 345 341 341 340
156 230 229 260 274 273 272 268 249 229 230 216 254 183 191 173 148 142 125 108 89 76 62 56 49 31 16 5 18 22 1 353 355 360 7 5 356 349 346 347 341 334 334 328
203 263 268 277 273 259 268 268 253 246 243 244 248 227 97 105 109 107 104 97 82 61 41 27 15 7 2 357 2 5 -0 358 356 350 359 3 354 344 341 338 335 328 325 324
185 196 9 273 304 317 276 259 247 296 40 268 234 159 144 112 114 119 101 87 83 64 40 27 14 5 352 347 352 354 349 340 347 343 356 348 341 340 338 332 325 324 325 319
188 128 95 279 313 240 229 21 176 127 69 88 97 100 100 109 101 98 86 89 70 52 29 10 0 349 340 340 351 343 344 344 346 341 348 343 339 328 322 323 322 319 320 317
192 130 234 257 227 291 191 60 114 188 133 9 130 117 109 111 106 67 74 77 88 64 15 356 351 338 336 345 337 337 336 329 331 337 336 331 328 324 324 323 321 318 310 304
118 139 175 200 248 255 102 135 350 291 242 35 109 109 114 129 172 160 75 68 57 29 10 341 347 336 341 328 326 334 322 326 326 330 323 323 323 322 321 321 321 315 306 304
134 153 220 227 257 271 130 110 305 158 172 86 94 89 67 108 114 134 69 42 24 12 350 352 348 335 318 321 327 320 312 307 314 317 315 317 320 319 314 316 312 309 312 302
169 173 199 191 236 261 16 86 199 122 72 105 102 92 91 92 82 78 68 14 357 347 338 337 333 322 311 325 327 320 318 314 318 316 316 315 315 313 313 307 306 309 305 305
210 193 184 206 227 101 28 100 75 86 117 91 104 85 87 84 51 9 341 340 338 339 332 317 317 307 314 311 316 315 313 311 317 313 312 308 307 308 305 314 308 308 305 307
193 103 186 152 173 142 115 77 62 67 97 96 83 81 75 67 341 333 339 346 339 335 326 312 315 307 300 295 309 292 303 308 308 308 309 308 309 306 317 303 300 302 303 306
141 124 176 34 104 108 163 131 125 120 117 105 85 67 30 351 333 321 332 331 323 316 312 312 307 307 310 310 308 301 308 307 303 307 307 304 306 306 306 297 300 295 298 301
213 164 193 211 130 99 120 143 156 148 127 105 79 6 3 1 331 326 312 302 303 299 315 314 311 313 307 306 303 304 306 304 305 306 306 304 309 299 305 299 294 286 309 314